Location: Newark
(42.8481°N, 0.4872°E)
Time: 07:47:50
(UTC+00:00)

SR - Pass Details

Date: 04 November 2020
Orbit: 579 x 876 km, 66.7° (Epoch: 29 November)

Event Time Altitude Azimuth Distance (km) Brightness Sun altitude
Rises 10:24:53 0° 316° (NW) 3,139 ? 29.0°
Reaches altitude 10° 10:27:33 10° 303° (WNW) 2,267 ? 29.1°
Maximum altitude 10:31:40 24° 250° (WSW) 1,576 ? 29.4°
Drops below altitude 10° 10:36:00 10° 198° (SSW) 2,404 ? 29.7°
Sets 10:38:56 0° 186° (S) 3,374 ? 29.8°
